Weather History for Fosston, MN

Change the Weather History Date:

Tuesday, November 1, 2011

  Actual Average Record
Temperature  
Mean Temperature 42 °F -  
Max Temperature 50 °F 47 °F 71 °F (1950)
Min Temperature 35 °F 28 °F 1 °F (1984)
Degree Days  
Heating Degree Days 22    
Moisture  
Dew Point 31 °F    
Average Humidity 64    
Maximum Humidity 81    
Minimum Humidity 40    
Precipitation  
Precipitation 0.00 in - - ()
Sea Level Pressure  
Sea Level Pressure 29.86 in    
Wind  
Wind Speed 7 mph (WSW)    
Max Wind Speed 16 mph    
Max Gust Speed 20 mph    
Visibility 10 miles    
Events      
Averages and records for this station are not official NWS values.
T = Trace of Precipitation, MM = Missing Value Source: NWS Daily Summary

Daily Weather History Graph

Daily Weather History Graph

Search for Another Location

Airport:

Trip Planner

Search our weather history database for the weather conditions in past years. The results will help you decide how hot, cold, wet, or windy it might be!

Date:

Astronomy

Nov. 01, 2011 Rise Set
Actual Time 8:06 AM CDT 6:05 PM CDT
Civil Twilight 7:34 AM CDT 6:38 PM CDT
Nautical Twilight 6:58 AM CDT 7:14 PM CDT
Astronomical Twilight 6:22 AM CDT 7:50 PM CDT
Moon 1:58 PM CDT (11/1) 11:46 PM CDT (11/1)
Length of Visible Light 11h 03m
Length of Day
9h 59m
Waxing Crescent, 40% of the Moon is Illuminated
Nov 1
Waxing Crescent
Nov 2
First Quarter
Nov 10
Full
Nov 18
Last Quarter
Nov 25
New

Hourly Weather History & Observations

Time (CDT) Temp. Windchill Dew Point Humidity Pressure Visibility Wind Dir Wind Speed Gust Speed Precip Events Conditions
12:15 AM 48.2 °F - 28.4 °F 46% 29.71 in 10.0 mi SSW 13.8 mph - N/A   Clear
12:35 AM 46.4 °F 39.8 °F 28.4 °F 50% 29.71 in 10.0 mi South 16.1 mph - N/A   Clear
12:55 AM 46.4 °F 40.1 °F 30.2 °F 53% 29.71 in 10.0 mi South 15.0 mph - N/A   Scattered Clouds
1:15 AM 46.4 °F 40.1 °F 30.2 °F 53% 29.72 in 10.0 mi SSW 15.0 mph - N/A   Clear
1:34 AM 46.4 °F 41.1 °F 30.2 °F 53% 29.72 in 10.0 mi South 11.5 mph - N/A   Scattered Clouds
1:55 AM 46.4 °F 40.7 °F 30.2 °F 53% 29.73 in 10.0 mi SSW 12.7 mph - N/A   Mostly Cloudy
2:15 AM 46.4 °F 40.1 °F 32.0 °F 57% 29.74 in 10.0 mi SSW 15.0 mph 19.6 mph N/A   Overcast
2:35 AM 44.6 °F - 33.8 °F 66% 29.74 in 10.0 mi Calm Calm - N/A   Overcast
2:55 AM 44.6 °F - 33.8 °F 66% 29.75 in 10.0 mi Calm Calm - N/A   Overcast
3:15 AM 44.6 °F - 35.6 °F 71% 29.75 in 10.0 mi Calm Calm - N/A   Overcast
3:35 AM 44.6 °F 39.7 °F 35.6 °F 71% 29.76 in 10.0 mi SW 9.2 mph - N/A   Overcast
3:55 AM 44.6 °F 41.4 °F 35.6 °F 71% 29.76 in 10.0 mi SW 5.8 mph - N/A   Mostly Cloudy
4:15 AM 42.8 °F - 35.6 °F 76% 29.76 in 10.0 mi Calm Calm - N/A   Scattered Clouds
4:35 AM 41.0 °F - 35.6 °F 81% 29.77 in 10.0 mi Calm Calm - N/A   Clear
4:55 AM 41.0 °F 34.3 °F 35.6 °F 81% 29.78 in 10.0 mi WNW 11.5 mph - N/A   Clear
5:15 AM 42.8 °F 38.0 °F 35.6 °F 76% 29.79 in 10.0 mi WNW 8.1 mph - N/A   Clear
5:35 AM 41.0 °F - 33.8 °F 76% 29.80 in 10.0 mi Calm Calm - N/A   Clear
5:55 AM 39.2 °F - 33.8 °F 81% 29.81 in 10.0 mi Calm Calm - N/A   Clear
6:15 AM 39.2 °F - 32.0 °F 75% 29.81 in 10.0 mi Calm Calm - N/A   Clear
6:35 AM 37.4 °F - 32.0 °F 81% 29.83 in 10.0 mi Calm Calm - N/A   Clear
6:55 AM 37.4 °F - 32.0 °F 81% 29.82 in 10.0 mi Calm Calm - N/A   Scattered Clouds
7:15 AM 37.4 °F - 30.2 °F 75% 29.83 in 10.0 mi Calm Calm - N/A   Scattered Clouds
7:35 AM 37.4 °F - 30.2 °F 75% 29.82 in 10.0 mi Calm Calm - N/A   Clear
8:15 AM 35.6 °F - 30.2 °F 81% 29.86 in 10.0 mi Calm Calm - N/A   Clear
8:35 AM 35.6 °F - 30.2 °F 81% 29.86 in 10.0 mi Calm Calm - N/A   Clear
9:15 AM 37.4 °F 31.4 °F 32.0 °F 81% 29.89 in 10.0 mi WNW 8.1 mph - N/A   Clear
9:35 AM 37.4 °F - 32.0 °F 81% 29.90 in 10.0 mi Calm Calm - N/A   Clear
9:55 AM 39.2 °F - 32.0 °F 75% 29.91 in 10.0 mi Calm Calm - N/A   Clear
10:15 AM 39.2 °F - 32.0 °F 75% 29.91 in 10.0 mi Calm Calm - N/A   Clear
10:35 AM 39.2 °F - 32.0 °F 75% 29.91 in 10.0 mi Calm Calm - N/A   Clear
10:55 AM 39.2 °F - 33.8 °F 81% 29.92 in 10.0 mi Calm Calm - N/A   Clear
11:15 AM 41.0 °F - 33.8 °F 76% 29.92 in 10.0 mi Calm Calm - N/A   Clear
11:33 AM 41.0 °F - 33.8 °F 76% 29.92 in 10.0 mi Calm Calm - N/A   Clear
12:15 PM 44.6 °F 41.4 °F 33.8 °F 66% 29.93 in 10.0 mi WNW 5.8 mph - N/A   Clear
12:36 PM 42.8 °F - 33.8 °F 70% 29.94 in 10.0 mi Calm Calm - N/A   Clear
12:55 PM 46.4 °F - 33.8 °F 62% 29.93 in 10.0 mi Calm Calm - N/A   Clear
1:15 PM 48.2 °F - 33.8 °F 58% 29.94 in 10.0 mi WNW 6.9 mph - N/A   Clear
1:35 PM 48.2 °F - 32.0 °F 54% 29.93 in 10.0 mi Calm Calm - N/A   Clear
2:15 PM 50.0 °F - 30.2 °F 47% 29.94 in 10.0 mi Calm Calm - N/A   Clear
2:56 PM 50.0 °F - 28.4 °F 43% 29.94 in 10.0 mi WNW 12.7 mph - N/A   Clear
3:15 PM 48.2 °F - 28.4 °F 46% 29.94 in 10.0 mi Calm Calm - N/A   Clear
3:35 PM 48.2 °F - 26.6 °F 43% 29.95 in 10.0 mi Calm Calm - N/A   Clear
3:55 PM 48.2 °F - 26.6 °F 43% 29.96 in 10.0 mi NW 8.1 mph 17.3 mph N/A   Clear
4:16 PM 48.2 °F - 24.8 °F 40% 29.96 in 10.0 mi NW 9.2 mph - N/A   Clear
4:35 PM 48.2 °F - 26.6 °F 43% 29.96 in 10.0 mi NW 11.5 mph - N/A   Clear
4:55 PM 48.2 °F - 26.6 °F 43% 29.97 in 10.0 mi Calm Calm - N/A   Clear
5:14 PM 46.4 °F - 26.6 °F 46% 29.97 in 10.0 mi Calm Calm - N/A   Clear
5:35 PM 46.4 °F - 26.6 °F 46% 29.97 in 10.0 mi Calm Calm - N/A   Clear
6:35 PM 39.2 °F - 26.6 °F 61% 29.99 in 10.0 mi Calm Calm - N/A   Clear
6:55 PM 37.4 °F - 24.8 °F 60% 30.00 in 10.0 mi Calm Calm - N/A   Clear
7:14 PM 37.4 °F - 26.6 °F 65% 30.01 in 10.0 mi Calm Calm - N/A   Clear
7:35 PM 35.6 °F - 24.8 °F 65% 30.02 in 10.0 mi Calm Calm - N/A   Clear
7:55 PM 33.8 °F - 23.0 °F 65% 30.04 in 10.0 mi Calm Calm - N/A   Clear
8:15 PM 32.0 °F - 23.0 °F 69% 30.04 in 10.0 mi Calm Calm - N/A   Clear
8:35 PM 32.0 °F - 24.8 °F 75% 30.05 in 10.0 mi Calm Calm - N/A   Clear
8:55 PM 32.0 °F - 24.8 °F 75% 30.06 in 10.0 mi Calm Calm - N/A   Clear
9:15 PM 32.0 °F - 24.8 °F 75% 30.06 in 10.0 mi Calm Calm - N/A   Clear
9:35 PM 33.8 °F - 24.8 °F 70% 30.07 in 10.0 mi Calm Calm - N/A   Clear
9:55 PM 33.8 °F - 24.8 °F 70% 30.07 in 10.0 mi Calm Calm - N/A   Clear
10:15 PM 33.8 °F - 24.8 °F 70% 30.08 in 10.0 mi Calm Calm - N/A   Clear
10:35 PM 33.8 °F - 24.8 °F 70% 30.08 in 10.0 mi Calm Calm - N/A   Clear
10:55 PM 33.8 °F - 24.8 °F 70% 30.08 in 10.0 mi Calm Calm - N/A   Clear
11:15 PM 32.0 °F - 24.8 °F 75% 30.09 in 10.0 mi Calm Calm - N/A   Clear
11:35 PM 30.2 °F - 23.0 °F 75% 30.09 in 10.0 mi Calm Calm - N/A   Clear
11:55 PM 30.2 °F - 23.0 °F 75% 30.10 in 10.0 mi Calm Calm - N/A   Clear